Tracking 19800 objects as of 23-Jul-2019
HD Live streaming from Space Station
objects crossing your sky now

STRV 1A

Track STRV 1A now!
10-day predictions
STRV 1A is classified as:


NORAD ID: 23125
Int'l Code: 1994-034B
Perigee: 236.1 km
Apogee: 25,982.0 km
Inclination: 7.3 °
Period: 451.0 minutes
Semi major axis: 19480 km
RCS: 0.2699 m2 (medium)
Launch date: June 17, 1994
Source: United Kingdom (UK)
Launch site: FRENCH GUIANA (FRGUI)
aabbcc
Your satellite tracking list
Your tracking list is empty




NASA's NSSDC Master Catalog

Two Line Element Set (TLE):
1 23125U 94034B   19203.51118417 +.00002651 +00000-0 +28096-3 0  9998
2 23125 007.2836 083.6288 6608271 235.7435 043.6047 03.19313501250956
Source of the keplerian elements: AFSPC